Location: Most
(50.5133°N, 13.6207°E)
Time: 03:30:00
(UTC+01:00)

ZACube-1 - Pass Details

Date: 07 December 2021
Orbit: 582 x 665 km, 97.6° (Epoch: 24 January)

Event Time Altitude Azimuth Distance (km) Brightness Sun altitude
Rises 04:49:58 0° 11° (NNE) 3,006 ? -27.8°
Reaches altitude 10° 04:52:12 10° 10° (N) 2,094 ? -27.4°
Enters shadow 04:52:51 14° 9° (N) 1,833 ? -27.3°
